START_TIME,STEP,MOV.,H8,t_acc.,H43,t_acc.,M25,t_acc.,H9,t_acc.
1979-03-10 09:14:31.220 ,0,0,0.,12.0,0.,12.0,0.,12.0,0.,12.0
1979-03-10 09:14:43.220 ,0,0,0.,12.0,0.,12.0,0.,12.0,0.,12.0
1979-03-10 09:14:51.020 ,5,0,0.,12.0,0.,12.0,0.,12.0,0.,12.0
1979-03-10 09:15:03.020 ,5,0,0.,12.0,0.,12.0,0.,12.0,0.,12.0
1979-03-10 09:15:15.020 ,6,0,0.,12.0,0.,12.0,0.,12.0,0.,12.0
1979-03-10 09:15:27.020 ,6,0,0.,12.0,0.,12.0,0.,12.0,0.,12.0
1979-03-10 09:15:39.020 ,7,0,0.,12.0,0.,12.0,0.,12.0,0.,12.0
1979-03-10 09:15:51.020 ,7,0,0.,12.0,0.,12.0,0.,12.0,0.,12.0
1979-03-10 09:16:03.020 ,6,0,0.,12.0,0.,12.0,0.,12.0,0.,12.0
1979-03-10 09:16:15.020 ,6,0,0.,12.0,0.,12.0,0.,12.0,0.,12.0
1979-03-10 09:16:27.020 ,0,0,0.,12.0,0.,12.0,0.,12.0,0.,12.0
1979-03-10 09:16:39.020 ,0,0,0.,12.0,0.,12.0,0.,12.0,0.,12.0
1979-03-10 09:16:51.020 ,0,0,0.,12.0,0.,12.0,0.,12.0,0.,12.0
1979-03-10 09:17:03.020 ,0,0,0.,12.0,0.,12.0,0.,12.0,0.,12.0
1979-03-10 09:17:15.020 ,5,0,0.,12.0,0.,12.0,0.,12.0,0.,12.0
1979-03-10 09:17:27.020 ,5,0,0.,12.0,0.,12.0,0.,12.0,0.,12.0
1979-03-10 09:17:39.020 ,4,0,0.,12.0,0.,12.0,0.,12.0,0.,12.0
1979-03-10 09:17:51.020 ,4,0,0.,12.0,0.,12.0,0.,12.0,0.,12.0
1979-03-10 09:18:03.020 ,3,0,0.,12.0,0.,12.0,0.,12.0,0.,12.0
1979-03-10 09:18:15.020 ,3,0,0.,12.0,0.,12.0,0.,12.0,0.,12.0
1979-03-10 09:18:27.020 ,2,0,0.,12.0,0.,12.0,0.,12.0,0.,12.0
1979-03-10 09:18:39.020 ,2,0,0.,12.0,0.,12.0,0.,12.0,0.,12.0
1979-03-10 09:18:51.020 ,1,0,0.,12.0,0.,12.0,0.,12.0,0.,12.0
1979-03-10 09:19:03.020 ,1,0,0.,12.0,0.,12.0,0.,12.0,0.,12.0
1979-03-10 09:19:15.020 ,0,0,0.,12.0,0.,12.0,0.,12.0,0.,12.0
1979-03-10 09:19:27.020 ,0,0,0.,12.0,0.,12.0,0.,12.0,0.,12.0
1979-03-10 09:19:39.020 ,0,0,0.,12.0,0.,12.0,0.,12.0,0.,12.0
1979-03-10 09:19:51.020 ,0,0,0.,12.0,0.,12.0,0.,12.0,0.,12.0
1979-03-10 09:20:03.020 ,1,0,0.,12.0,0.,12.0,0.,12.0,0.,12.0
1979-03-10 09:20:15.020 ,1,0,0.,12.0,0.,12.0,0.,12.0,0.,12.0
1979-03-10 09:20:27.020 ,2,0,0.,12.0,0.,12.0,0.,12.0,0.,12.0
1979-03-10 09:20:39.020 ,2,0,0.,12.0,0.,12.0,0.,12.0,0.,12.0
1979-03-10 09:20:51.020 ,3,0,0.,12.0,0.,12.0,0.,12.0,0.,12.0
1979-03-10 09:21:03.020 ,3,0,0.,12.0,0.,12.0,0.,12.0,0.,12.0
1979-03-10 09:21:15.020 ,4,0,0.,12.0,0.,12.0,0.,12.0,0.,12.0
1979-03-10 09:21:27.020 ,4,0,0.,12.0,0.,12.0,0.,12.0,0.,12.0
1979-03-10 09:21:39.020 ,5,0,0.,12.0,0.,12.0,0.,12.0,0.,12.0
1979-03-10 09:21:51.020 ,5,0,0.,12.0,0.,12.0,0.,12.0,0.,12.0
1979-03-10 09:22:03.020 ,0,0,0.,12.0,0.,12.0,0.,12.0,0.,12.0
1979-03-10 09:22:15.020 ,0,0,0.,12.0,0.,12.0,0.,12.0,0.,12.0
1979-03-10 09:23:09.620 ,0,0,,0,,0,,0,,0
1979-03-10 09:23:21.620 ,0,0,0.,12.0,0.,12.0,0.,12.0,0.,12.0
1979-03-10 09:23:15.020 ,6,0,0.,12.0,0.,12.0,0.,12.0,0.,12.0
1979-03-10 09:23:27.020 ,6,0,0.,12.0,0.,12.0,0.,12.0,0.,12.0
1979-03-10 09:23:39.020 ,5,0,0.,12.0,0.,12.0,0.,12.0,0.,12.0
1979-03-10 09:23:51.020 ,5,0,0.,12.0,0.,12.0,0.,12.0,0.,12.0
1979-03-10 09:24:03.020 ,4,0,1.,12.0,0.,12.0,0.,12.0,0.,12.0
1979-03-10 09:24:15.020 ,4,0,0.,12.0,0.,12.0,0.,12.0,0.,12.0
1979-03-10 09:24:27.020 ,3,0,0.,12.0,0.,12.0,0.,12.0,0.,12.0
1979-03-10 09:24:39.020 ,3,0,0.,12.0,0.,12.0,0.,12.0,0.,12.0
1979-03-10 09:24:51.020 ,2,0,0.,12.0,0.,12.0,0.,12.0,0.,12.0
1979-03-10 09:25:03.020 ,2,0,0.,12.0,0.,12.0,0.,12.0,0.,12.0
1979-03-10 09:25:15.020 ,1,0,0.,12.0,0.,12.0,0.,12.0,0.,12.0
1979-03-10 09:25:27.020 ,1,0,0.,12.0,0.,12.0,0.,12.0,0.,12.0
1979-03-10 09:25:39.020 ,0,0,0.,12.0,0.,12.0,0.,12.0,0.,12.0
1979-03-10 09:25:51.020 ,0,0,0.,12.0,0.,12.0,0.,12.0,0.,12.0
1979-03-10 09:26:03.020 ,0,0,0.,12.0,0.,12.0,0.,12.0,0.,12.0
1979-03-10 09:26:15.020 ,0,0,0.,12.0,0.,12.0,0.,12.0,0.,12.0
1979-03-10 09:26:27.020 ,1,0,0.,12.0,0.,12.0,0.,12.0,0.,12.0
1979-03-10 09:26:39.020 ,1,0,0.,12.0,0.,12.0,0.,12.0,0.,12.0
1979-03-10 09:26:51.020 ,2,0,0.,12.0,0.,12.0,0.,12.0,0.,12.0
1979-03-10 09:27:03.020 ,2,0,0.,12.0,0.,12.0,0.,12.0,0.,12.0
1979-03-10 09:27:15.020 ,3,0,0.,12.0,0.,12.0,0.,12.0,0.,12.0
1979-03-10 09:27:27.020 ,3,0,0.,12.0,0.,12.0,0.,12.0,0.,12.0
1979-03-10 09:27:39.020 ,4,0,0.,12.0,0.,12.0,0.,12.0,0.,12.0
1979-03-10 09:27:51.020 ,4,0,0.,12.0,0.,12.0,0.,12.0,0.,12.0
1979-03-10 09:28:03.020 ,5,0,0.,12.0,0.,12.0,0.,12.0,0.,12.0
1979-03-10 09:28:15.020 ,5,0,1.,12.0,0.,12.0,0.,12.0,0.,12.0
1979-03-10 09:28:27.020 ,6,0,0.,12.0,0.,12.0,0.,12.0,0.,12.0
1979-03-10 09:28:39.020 ,6,0,0.,12.0,0.,12.0,0.,12.0,0.,12.0
1979-03-10 09:28:51.020 ,7,0,0.,12.0,0.,12.0,0.,12.0,0.,12.0
1979-03-10 09:29:03.020 ,7,0,0.,12.0,0.,12.0,0.,12.0,0.,12.0
1979-03-10 09:29:15.020 ,7,0,0.,12.0,0.,12.0,0.,12.0,0.,12.0
1979-03-10 09:29:27.020 ,7,0,0.,12.0,0.,12.0,0.,12.0,0.,12.0
1979-03-10 09:29:39.020 ,6,0,0.,12.0,0.,12.0,0.,12.0,0.,12.0
1979-03-10 09:29:51.020 ,6,0,0.,12.0,0.,12.0,0.,12.0,0.,12.0
1979-03-10 09:30:03.020 ,5,0,0.,12.0,0.,12.0,0.,12.0,0.,12.0
1979-03-10 09:30:15.020 ,5,0,0.,12.0,0.,12.0,0.,12.0,0.,12.0
1979-03-10 09:30:27.020 ,4,0,0.,12.0,0.,12.0,0.,12.0,0.,12.0
1979-03-10 09:30:39.020 ,4,0,0.,12.0,0.,12.0,0.,12.0,0.,12.0
1979-03-10 09:30:51.020 ,3,0,0.,12.0,0.,12.0,0.,12.0,0.,12.0
1979-03-10 09:31:03.020 ,3,0,0.,12.0,0.,12.0,0.,12.0,0.,12.0
1979-03-10 09:31:15.020 ,2,0,0.,12.0,0.,12.0,0.,12.0,0.,12.0
1979-03-10 09:31:27.020 ,2,0,0.,12.0,0.,12.0,0.,12.0,0.,12.0
1979-03-10 09:31:39.020 ,1,0,0.,12.0,0.,12.0,0.,12.0,0.,12.0
1979-03-10 09:31:51.020 ,1,0,0.,12.0,0.,12.0,0.,12.0,0.,12.0
1979-03-10 09:32:03.020 ,0,0,0.,12.0,0.,12.0,0.,12.0,0.,12.0
1979-03-10 09:32:15.020 ,0,0,0.,12.0,0.,12.0,0.,12.0,0.,12.0
1979-03-10 09:32:27.020 ,0,0,0.,12.0,0.,12.0,0.,12.0,0.,12.0
1979-03-10 09:32:39.020 ,0,0,0.,12.0,0.,12.0,0.,12.0,0.,12.0
1979-03-10 09:32:51.020 ,1,0,0.,12.0,0.,12.0,0.,12.0,0.,12.0
1979-03-10 09:33:03.020 ,1,0,0.,12.0,0.,12.0,0.,12.0,0.,12.0
1979-03-10 09:33:15.020 ,2,0,0.,12.0,0.,12.0,0.,12.0,0.,12.0
1979-03-10 09:33:27.020 ,2,0,0.,12.0,0.,12.0,0.,12.0,0.,12.0
1979-03-10 09:33:39.020 ,3,0,0.,12.0,0.,12.0,0.,12.0,0.,12.0
1979-03-10 09:33:51.020 ,3,0,0.,12.0,0.,12.0,0.,12.0,0.,12.0
1979-03-10 09:34:03.020 ,4,0,0.,12.0,0.,12.0,0.,12.0,0.,12.0
1979-03-10 09:34:15.020 ,4,0,0.,12.0,0.,12.0,0.,12.0,0.,12.0
1979-03-10 09:34:27.020 ,5,0,0.,12.0,0.,12.0,0.,12.0,0.,12.0
1979-03-10 09:34:39.020 ,5,0,0.,12.0,0.,12.0,0.,12.0,0.,12.0
1979-03-10 09:34:51.020 ,6,0,0.,12.0,0.,12.0,0.,12.0,0.,12.0
1979-03-10 09:35:03.020 ,6,0,0.,12.0,0.,12.0,0.,12.0,0.,12.0
1979-03-10 09:35:15.020 ,7,0,0.,12.0,0.,12.0,0.,12.0,0.,12.0
1979-03-10 09:35:27.020 ,7,0,0.,12.0,0.,12.0,0.,12.0,0.,12.0
1979-03-10 09:35:39.020 ,7,0,0.,12.0,0.,12.0,0.,12.0,0.,12.0
1979-03-10 09:35:51.020 ,7,0,0.,12.0,0.,12.0,0.,12.0,0.,12.0
1979-03-10 09:36:03.020 ,6,0,0.,12.0,0.,12.0,0.,12.0,0.,12.0
1979-03-10 09:36:15.020 ,6,0,0.,12.0,0.,12.0,0.,12.0,0.,12.0
1979-03-10 09:36:27.020 ,5,0,0.,12.0,0.,12.0,0.,12.0,0.,12.0
1979-03-10 09:36:39.020 ,5,0,0.,12.0,0.,12.0,0.,12.0,0.,12.0
1979-03-10 09:36:51.020 ,4,0,0.,12.0,0.,12.0,0.,12.0,0.,12.0
1979-03-10 09:37:03.020 ,4,0,0.,12.0,0.,12.0,0.,12.0,0.,12.0
1979-03-10 09:37:15.020 ,3,0,0.,12.0,0.,12.0,0.,12.0,0.,12.0
1979-03-10 09:37:27.020 ,3,0,0.,12.0,0.,12.0,0.,12.0,0.,12.0
1979-03-10 09:37:39.020 ,2,0,0.,12.0,0.,12.0,0.,12.0,0.,12.0
1979-03-10 09:37:51.020 ,2,0,0.,12.0,0.,12.0,0.,12.0,0.,12.0
1979-03-10 09:38:03.020 ,1,0,0.,12.0,0.,12.0,0.,12.0,0.,12.0
1979-03-10 09:38:15.020 ,1,0,0.,12.0,0.,12.0,0.,12.0,0.,12.0
1979-03-10 09:38:27.020 ,0,0,0.,12.0,0.,12.0,0.,12.0,0.,12.0
1979-03-10 09:38:39.020 ,0,0,0.,12.0,0.,12.0,0.,12.0,0.,12.0
1979-03-10 09:38:51.020 ,0,0,0.,12.0,0.,12.0,0.,12.0,0.,12.0
1979-03-10 09:39:03.020 ,0,0,0.,12.0,0.,12.0,0.,12.0,0.,12.0
1979-03-10 09:39:15.020 ,1,0,0.,12.0,0.,12.0,0.,12.0,0.,12.0
1979-03-10 09:39:27.020 ,1,0,0.,12.0,0.,12.0,0.,12.0,0.,12.0
1979-03-10 09:39:39.020 ,2,0,0.,12.0,0.,12.0,0.,12.0,0.,12.0
1979-03-10 09:39:51.020 ,2,0,0.,12.0,0.,12.0,0.,12.0,0.,12.0
1979-03-10 09:40:03.020 ,3,0,0.,12.0,0.,12.0,0.,12.0,0.,12.0
1979-03-10 09:40:15.020 ,3,0,0.,12.0,0.,12.0,0.,12.0,0.,12.0
1979-03-10 09:40:27.020 ,4,0,0.,12.0,0.,12.0,0.,12.0,0.,12.0
1979-03-10 09:40:39.020 ,4,0,0.,12.0,0.,12.0,0.,12.0,0.,12.0
1979-03-10 09:40:51.020 ,5,0,0.,12.0,0.,12.0,0.,12.0,0.,12.0
1979-03-10 09:41:03.020 ,5,0,0.,12.0,0.,12.0,0.,12.0,0.,12.0
1979-03-10 09:41:15.020 ,6,0,0.,12.0,0.,12.0,0.,12.0,0.,12.0
1979-03-10 09:41:27.020 ,6,0,0.,12.0,0.,12.0,0.,12.0,0.,12.0
1979-03-10 09:41:39.020 ,7,0,0.,12.0,0.,12.0,0.,12.0,0.,12.0
1979-03-10 09:41:51.020 ,7,0,0.,12.0,0.,12.0,0.,12.0,0.,12.0
1979-03-10 09:42:03.020 ,7,0,0.,12.0,0.,12.0,0.,12.0,0.,12.0
1979-03-10 09:42:15.020 ,7,0,0.,12.0,0.,12.0,0.,12.0,0.,12.0
1979-03-10 09:42:27.020 ,6,0,0.,12.0,0.,12.0,0.,12.0,0.,12.0
1979-03-10 09:42:39.020 ,6,0,0.,12.0,0.,12.0,0.,12.0,0.,12.0
1979-03-10 09:42:51.020 ,5,0,0.,12.0,0.,12.0,0.,12.0,0.,12.0
1979-03-10 09:43:03.020 ,5,0,0.,12.0,0.,12.0,0.,12.0,0.,12.0
1979-03-10 09:43:15.020 ,4,0,0.,12.0,0.,12.0,0.,12.0,0.,12.0
1979-03-10 09:43:27.020 ,4,0,0.,12.0,0.,12.0,0.,12.0,0.,12.0
1979-03-10 09:43:39.020 ,3,0,0.,12.0,0.,12.0,0.,12.0,0.,12.0
1979-03-10 09:43:51.020 ,3,0,0.,12.0,0.,12.0,0.,12.0,0.,12.0
1979-03-10 09:44:03.020 ,2,0,0.,12.0,0.,12.0,0.,12.0,0.,12.0
1979-03-10 09:44:15.020 ,2,0,0.,12.0,0.,12.0,0.,12.0,0.,12.0
1979-03-10 09:44:27.020 ,1,0,0.,12.0,0.,12.0,0.,12.0,0.,12.0
1979-03-10 09:44:39.020 ,1,0,0.,12.0,0.,12.0,0.,12.0,0.,12.0
1979-03-10 09:44:51.020 ,0,0,0.,12.0,0.,12.0,0.,12.0,0.,12.0
1979-03-10 09:45:03.020 ,0,0,0.,12.0,0.,12.0,0.,12.0,0.,12.0
1979-03-10 09:45:15.020 ,0,0,0.,12.0,0.,12.0,0.,12.0,0.,12.0
1979-03-10 09:45:27.020 ,0,0,0.,12.0,0.,12.0,0.,12.0,0.,12.0
1979-03-10 09:45:39.020 ,1,0,0.,12.0,0.,12.0,0.,12.0,0.,12.0
1979-03-10 09:45:51.020 ,1,0,0.,12.0,0.,12.0,0.,12.0,0.,12.0
1979-03-10 09:46:03.020 ,2,0,0.,12.0,0.,12.0,0.,12.0,0.,12.0
1979-03-10 09:46:15.020 ,2,0,0.,12.0,0.,12.0,0.,12.0,0.,12.0
1979-03-10 09:46:27.020 ,3,0,0.,12.0,0.,12.0,0.,12.0,0.,12.0
1979-03-10 09:46:39.020 ,3,0,0.,12.0,0.,12.0,0.,12.0,0.,12.0
1979-03-10 09:46:51.020 ,4,0,0.,12.0,0.,12.0,0.,12.0,0.,12.0
1979-03-10 09:47:03.020 ,4,0,0.,12.0,0.,12.0,0.,12.0,0.,12.0
1979-03-10 09:47:15.020 ,5,0,0.,12.0,0.,12.0,0.,12.0,0.,12.0
1979-03-10 09:47:27.020 ,5,0,0.,12.0,0.,12.0,0.,12.0,0.,12.0
1979-03-10 09:47:39.020 ,6,0,0.,12.0,0.,12.0,0.,12.0,0.,12.0
1979-03-10 09:47:51.020 ,6,0,0.,12.0,0.,12.0,0.,12.0,0.,12.0
1979-03-10 09:48:03.020 ,7,0,0.,12.0,0.,12.0,0.,12.0,0.,12.0
1979-03-10 09:48:15.020 ,7,0,0.,12.0,0.,12.0,0.,12.0,0.,12.0
1979-03-10 09:48:27.020 ,7,0,0.,12.0,0.,12.0,0.,12.0,0.,12.0
1979-03-10 09:48:39.020 ,7,0,0.,12.0,0.,12.0,0.,12.0,0.,12.0
1979-03-10 09:48:51.020 ,6,0,0.,12.0,0.,12.0,0.,12.0,0.,12.0
1979-03-10 09:49:03.020 ,6,0,0.,12.0,0.,12.0,0.,12.0,0.,12.0
1979-03-10 09:49:15.020 ,5,0,0.,12.0,0.,12.0,0.,12.0,0.,12.0
1979-03-10 09:49:27.020 ,5,0,0.,12.0,0.,12.0,0.,12.0,0.,12.0
1979-03-10 09:49:39.020 ,4,0,0.,12.0,0.,12.0,0.,12.0,0.,12.0
1979-03-10 09:49:51.020 ,4,0,0.,12.0,0.,12.0,0.,12.0,0.,12.0
1979-03-10 09:50:03.020 ,3,0,0.,12.0,0.,12.0,0.,12.0,0.,12.0
1979-03-10 09:50:15.020 ,3,0,0.,12.0,0.,12.0,0.,12.0,0.,12.0
1979-03-10 09:50:27.020 ,2,0,0.,12.0,0.,12.0,0.,12.0,0.,12.0
1979-03-10 09:50:39.020 ,2,0,0.,12.0,0.,12.0,0.,12.0,0.,12.0
1979-03-10 09:50:51.020 ,1,0,0.,12.0,0.,12.0,0.,12.0,0.,12.0
1979-03-10 09:51:03.020 ,1,0,0.,12.0,0.,12.0,0.,12.0,0.,12.0
1979-03-10 09:51:15.020 ,0,0,0.,12.0,0.,12.0,0.,12.0,0.,12.0
1979-03-10 09:51:27.020 ,0,0,0.,12.0,0.,12.0,0.,12.0,0.,12.0
1979-03-10 09:51:39.020 ,0,0,0.,12.0,0.,12.0,0.,12.0,0.,12.0
1979-03-10 09:51:51.020 ,0,0,0.,12.0,0.,12.0,0.,12.0,0.,12.0
1979-03-10 09:52:03.020 ,1,0,0.,12.0,0.,12.0,0.,12.0,0.,12.0
1979-03-10 09:52:15.020 ,1,0,0.,12.0,0.,12.0,0.,12.0,0.,12.0
1979-03-10 09:52:27.020 ,2,0,0.,12.0,0.,12.0,0.,12.0,0.,12.0
1979-03-10 09:52:39.020 ,2,0,0.,12.0,0.,12.0,0.,12.0,0.,12.0
1979-03-10 09:52:51.020 ,3,0,0.,12.0,0.,12.0,0.,12.0,0.,12.0
1979-03-10 09:53:03.020 ,3,0,0.,12.0,0.,12.0,0.,12.0,0.,12.0
1979-03-10 09:53:15.020 ,4,0,0.,12.0,0.,12.0,0.,12.0,0.,12.0
1979-03-10 09:53:27.020 ,4,0,0.,12.0,0.,12.0,0.,12.0,0.,12.0
1979-03-10 09:53:39.020 ,5,0,0.,12.0,0.,12.0,0.,12.0,0.,12.0
1979-03-10 09:53:51.020 ,5,0,0.,12.0,0.,12.0,0.,12.0,0.,12.0
1979-03-10 09:54:03.020 ,6,0,0.,12.0,0.,12.0,0.,12.0,0.,12.0
1979-03-10 09:54:15.020 ,6,0,0.,12.0,0.,12.0,0.,12.0,0.,12.0
1979-03-10 09:54:27.020 ,7,0,0.,12.0,0.,12.0,0.,12.0,0.,12.0
1979-03-10 09:54:39.020 ,7,0,0.,12.0,0.,12.0,0.,12.0,0.,12.0
1979-03-10 09:54:51.020 ,7,0,0.,12.0,0.,12.0,0.,12.0,0.,12.0
1979-03-10 09:55:03.020 ,7,0,0.,12.0,0.,12.0,0.,12.0,0.,12.0
1979-03-10 09:55:15.020 ,6,0,0.,12.0,0.,12.0,0.,12.0,0.,12.0
1979-03-10 09:55:27.020 ,6,0,0.,12.0,0.,12.0,0.,12.0,0.,12.0
1979-03-10 09:55:39.020 ,5,0,0.,12.0,0.,12.0,0.,12.0,0.,12.0
1979-03-10 09:55:51.020 ,5,0,0.,12.0,0.,12.0,0.,12.0,0.,12.0
1979-03-10 09:56:03.020 ,4,0,0.,12.0,0.,12.0,0.,12.0,0.,12.0
1979-03-10 09:56:15.020 ,4,0,0.,12.0,0.,12.0,0.,12.0,0.,12.0
1979-03-10 09:56:27.020 ,3,0,0.,12.0,0.,12.0,0.,12.0,0.,12.0
1979-03-10 09:56:39.020 ,3,0,0.,12.0,0.,12.0,0.,12.0,0.,12.0
1979-03-10 09:56:51.020 ,2,0,0.,12.0,0.,12.0,0.,12.0,0.,12.0
1979-03-10 09:57:03.020 ,2,0,0.,12.0,0.,12.0,0.,12.0,0.,12.0
1979-03-10 09:57:15.020 ,1,0,0.,12.0,0.,12.0,0.,12.0,0.,12.0
1979-03-10 09:57:27.020 ,1,0,0.,12.0,0.,12.0,0.,12.0,0.,12.0
1979-03-10 09:57:39.020 ,0,0,0.,12.0,0.,12.0,0.,12.0,0.,12.0
1979-03-10 09:57:51.020 ,0,0,0.,12.0,0.,12.0,0.,12.0,0.,12.0
1979-03-10 09:58:03.020 ,0,0,0.,12.0,0.,12.0,0.,12.0,0.,12.0
1979-03-10 09:58:15.020 ,0,0,0.,12.0,0.,12.0,0.,12.0,0.,12.0
1979-03-10 09:58:27.020 ,1,0,0.,12.0,0.,12.0,0.,12.0,0.,12.0
1979-03-10 09:58:39.020 ,1,0,0.,12.0,0.,12.0,0.,12.0,0.,12.0
1979-03-10 09:58:51.020 ,2,0,0.,12.0,0.,12.0,0.,12.0,0.,12.0
1979-03-10 09:59:03.020 ,2,0,0.,12.0,0.,12.0,0.,12.0,0.,12.0
1979-03-10 09:59:15.020 ,3,0,0.,12.0,0.,12.0,0.,12.0,0.,12.0
1979-03-10 09:59:27.020 ,3,0,0.,12.0,0.,12.0,0.,12.0,0.,12.0
1979-03-10 09:59:39.020 ,4,0,0.,12.0,0.,12.0,0.,12.0,0.,12.0
1979-03-10 09:59:51.020 ,4,0,0.,12.0,0.,12.0,0.,12.0,0.,12.0
1979-03-10 10:00:03.020 ,5,0,0.,12.0,0.,12.0,0.,12.0,0.,12.0
1979-03-10 10:00:15.020 ,5,0,0.,12.0,0.,12.0,0.,12.0,0.,12.0
1979-03-10 10:00:27.020 ,6,0,0.,12.0,0.,12.0,0.,12.0,0.,12.0
1979-03-10 10:00:39.020 ,6,0,0.,12.0,0.,12.0,0.,12.0,0.,12.0
1979-03-10 10:00:51.020 ,7,0,0.,12.0,0.,12.0,0.,12.0,0.,12.0
1979-03-10 10:01:03.020 ,7,0,0.,12.0,0.,12.0,0.,12.0,0.,12.0
1979-03-10 10:01:15.020 ,7,0,0.,12.0,0.,12.0,0.,12.0,0.,12.0
1979-03-10 10:01:27.020 ,7,0,0.,12.0,0.,12.0,0.,12.0,0.,12.0
1979-03-10 10:01:39.020 ,6,0,0.,12.0,0.,12.0,0.,12.0,0.,12.0
1979-03-10 10:01:51.020 ,6,0,0.,12.0,0.,12.0,0.,12.0,0.,12.0
1979-03-10 10:02:03.020 ,5,0,0.,12.0,0.,12.0,0.,12.0,0.,12.0
1979-03-10 10:02:15.020 ,5,0,1.,12.0,0.,12.0,0.,12.0,0.,12.0
1979-03-10 10:02:27.020 ,4,0,0.,12.0,0.,12.0,0.,12.0,0.,12.0
1979-03-10 10:02:39.020 ,4,0,0.,12.0,0.,12.0,0.,12.0,0.,12.0
1979-03-10 10:02:51.020 ,3,0,0.,12.0,0.,12.0,0.,12.0,0.,12.0
1979-03-10 10:03:03.020 ,3,0,1.,12.0,0.,12.0,0.,12.0,0.,12.0
1979-03-10 10:03:15.020 ,2,0,0.,12.0,0.,12.0,0.,12.0,0.,12.0
1979-03-10 10:03:27.020 ,2,0,0.,12.0,0.,12.0,0.,12.0,0.,12.0
1979-03-10 10:03:39.020 ,1,0,0.,12.0,0.,12.0,0.,12.0,0.,12.0
1979-03-10 10:03:51.020 ,1,0,0.,12.0,0.,12.0,0.,12.0,0.,12.0
1979-03-10 10:04:03.020 ,0,0,0.,12.0,0.,12.0,0.,12.0,0.,12.0
1979-03-10 10:04:15.020 ,0,0,0.,12.0,0.,12.0,0.,12.0,0.,12.0
1979-03-10 10:04:27.020 ,0,0,0.,12.0,0.,12.0,0.,12.0,0.,12.0
1979-03-10 10:04:39.020 ,0,0,0.,12.0,0.,12.0,0.,12.0,0.,12.0
1979-03-10 10:04:51.020 ,1,0,0.,12.0,0.,12.0,0.,12.0,0.,12.0
1979-03-10 10:05:03.020 ,1,0,0.,12.0,0.,12.0,0.,12.0,0.,12.0
1979-03-10 10:05:15.020 ,2,0,0.,12.0,0.,12.0,0.,12.0,0.,12.0
1979-03-10 10:05:27.020 ,2,0,0.,12.0,0.,12.0,0.,12.0,0.,12.0
1979-03-10 10:05:39.020 ,3,0,0.,12.0,0.,12.0,0.,12.0,0.,12.0
1979-03-10 10:05:51.020 ,3,0,0.,12.0,0.,12.0,0.,12.0,0.,12.0
1979-03-10 10:06:03.020 ,4,0,0.,12.0,0.,12.0,0.,12.0,0.,12.0
1979-03-10 10:06:15.020 ,4,0,0.,12.0,0.,12.0,0.,12.0,0.,12.0
1979-03-10 10:06:27.020 ,5,0,0.,12.0,0.,12.0,0.,12.0,0.,12.0
1979-03-10 10:06:39.020 ,5,0,0.,12.0,0.,12.0,0.,12.0,0.,12.0
1979-03-10 10:06:51.020 ,6,0,0.,12.0,0.,12.0,0.,12.0,0.,12.0
1979-03-10 10:07:03.020 ,6,0,0.,12.0,0.,12.0,0.,12.0,0.,12.0
1979-03-10 10:07:15.020 ,7,0,0.,12.0,0.,12.0,0.,12.0,0.,12.0
1979-03-10 10:07:27.020 ,7,0,0.,12.0,0.,12.0,0.,12.0,0.,12.0
1979-03-10 10:07:39.020 ,7,0,0.,12.0,0.,12.0,0.,12.0,0.,12.0
1979-03-10 10:07:51.020 ,7,0,0.,12.0,0.,12.0,0.,12.0,0.,12.0
1979-03-10 10:08:03.020 ,6,0,0.,12.0,0.,12.0,0.,12.0,0.,12.0
1979-03-10 10:08:15.020 ,6,0,0.,12.0,0.,12.0,0.,12.0,0.,12.0
1979-03-10 10:08:27.020 ,5,0,0.,12.0,0.,12.0,0.,12.0,0.,12.0
1979-03-10 10:08:39.020 ,5,0,0.,12.0,0.,12.0,0.,12.0,0.,12.0
1979-03-10 10:08:51.020 ,4,0,0.,12.0,0.,12.0,0.,12.0,0.,12.0
1979-03-10 10:09:03.020 ,4,0,0.,12.0,0.,12.0,0.,12.0,0.,12.0
1979-03-10 10:09:15.020 ,3,0,0.,12.0,0.,12.0,0.,12.0,0.,12.0
1979-03-10 10:09:27.020 ,3,0,0.,12.0,0.,12.0,0.,12.0,0.,12.0
1979-03-10 10:09:39.020 ,2,0,0.,12.0,0.,12.0,0.,12.0,0.,12.0
1979-03-10 10:09:51.020 ,2,0,0.,12.0,0.,12.0,0.,12.0,0.,12.0
1979-03-10 10:10:03.020 ,1,0,0.,12.0,0.,12.0,0.,12.0,0.,12.0
1979-03-10 10:10:15.020 ,1,0,0.,12.0,0.,12.0,0.,12.0,0.,12.0
1979-03-10 10:10:27.020 ,0,0,0.,12.0,0.,12.0,0.,12.0,0.,12.0
1979-03-10 10:10:39.020 ,0,0,0.,12.0,0.,12.0,0.,12.0,0.,12.0
1979-03-10 10:10:51.020 ,0,0,0.,12.0,0.,12.0,0.,12.0,0.,12.0
1979-03-10 10:11:03.020 ,0,0,0.,12.0,0.,12.0,0.,12.0,0.,12.0
1979-03-10 10:11:15.020 ,1,0,0.,12.0,0.,12.0,0.,12.0,0.,12.0
1979-03-10 10:11:27.020 ,1,0,0.,12.0,0.,12.0,0.,12.0,0.,12.0
1979-03-10 10:11:39.020 ,2,0,0.,12.0,0.,12.0,0.,12.0,0.,12.0
1979-03-10 10:11:51.020 ,2,0,0.,12.0,0.,12.0,0.,12.0,0.,12.0
1979-03-10 10:12:03.020 ,3,0,0.,12.0,0.,12.0,0.,12.0,0.,12.0
1979-03-10 10:12:15.020 ,3,0,0.,12.0,0.,12.0,0.,12.0,0.,12.0
1979-03-10 10:12:27.020 ,4,0,0.,12.0,0.,12.0,0.,12.0,0.,12.0
1979-03-10 10:12:39.020 ,4,0,0.,12.0,0.,12.0,0.,12.0,0.,12.0
1979-03-10 10:12:51.020 ,5,0,0.,12.0,0.,12.0,0.,12.0,0.,12.0
1979-03-10 10:13:03.020 ,5,0,0.,12.0,0.,12.0,0.,12.0,0.,12.0
1979-03-10 10:13:15.020 ,6,0,0.,12.0,0.,12.0,0.,12.0,0.,12.0
1979-03-10 10:13:27.020 ,6,0,0.,12.0,0.,12.0,0.,12.0,0.,12.0
1979-03-10 10:13:39.020 ,7,0,0.,12.0,0.,12.0,0.,12.0,0.,12.0
1979-03-10 10:13:51.020 ,7,0,0.,12.0,0.,12.0,0.,12.0,0.,12.0
1979-03-10 10:14:03.020 ,7,0,0.,12.0,0.,12.0,0.,12.0,0.,12.0
1979-03-10 10:14:15.020 ,7,0,0.,12.0,0.,12.0,0.,12.0,0.,12.0
1979-03-10 10:14:27.020 ,6,0,0.,12.0,0.,12.0,0.,12.0,0.,12.0
1979-03-10 10:14:39.020 ,6,0,0.,12.0,0.,12.0,0.,12.0,0.,12.0
1979-03-10 10:14:51.020 ,5,0,0.,12.0,0.,12.0,0.,12.0,0.,12.0
1979-03-10 10:15:03.020 ,5,0,0.,12.0,0.,12.0,0.,12.0,0.,12.0
1979-03-10 10:15:15.020 ,4,0,0.,12.0,0.,12.0,0.,12.0,0.,12.0
1979-03-10 10:15:27.020 ,4,0,0.,12.0,0.,12.0,0.,12.0,0.,12.0
1979-03-10 10:15:39.020 ,3,0,0.,12.0,0.,12.0,0.,12.0,0.,12.0
1979-03-10 10:15:51.020 ,3,0,0.,12.0,0.,12.0,0.,12.0,0.,12.0
1979-03-10 10:16:03.020 ,2,0,0.,12.0,0.,12.0,0.,12.0,0.,12.0
1979-03-10 10:16:15.020 ,2,0,0.,12.0,0.,12.0,0.,12.0,0.,12.0
1979-03-10 10:16:27.020 ,1,0,0.,12.0,0.,12.0,0.,12.0,0.,12.0
1979-03-10 10:16:39.020 ,1,0,0.,12.0,0.,12.0,0.,12.0,0.,12.0
1979-03-10 10:16:51.020 ,0,0,0.,12.0,0.,12.0,0.,12.0,0.,12.0
1979-03-10 10:17:03.020 ,0,0,0.,12.0,0.,12.0,0.,12.0,0.,12.0
1979-03-10 10:17:15.020 ,0,0,0.,12.0,0.,12.0,0.,12.0,0.,12.0
1979-03-10 10:17:27.020 ,0,0,0.,12.0,0.,12.0,0.,12.0,0.,12.0
1979-03-10 10:17:39.020 ,1,0,0.,12.0,0.,12.0,0.,12.0,0.,12.0
1979-03-10 10:17:51.020 ,1,0,0.,12.0,0.,12.0,0.,12.0,0.,12.0
1979-03-10 10:18:03.020 ,2,0,0.,12.0,0.,12.0,0.,12.0,0.,12.0
1979-03-10 10:18:15.020 ,2,0,0.,12.0,0.,12.0,0.,12.0,0.,12.0
1979-03-10 10:18:27.020 ,3,0,0.,12.0,0.,12.0,0.,12.0,0.,12.0
1979-03-10 10:18:39.020 ,3,0,0.,12.0,0.,12.0,0.,12.0,0.,12.0
1979-03-10 10:18:51.020 ,4,0,0.,12.0,0.,12.0,0.,12.0,0.,12.0
1979-03-10 10:19:03.020 ,4,0,0.,12.0,0.,12.0,0.,12.0,0.,12.0
1979-03-10 10:19:15.020 ,5,0,0.,12.0,0.,12.0,0.,12.0,0.,12.0
1979-03-10 10:19:27.020 ,5,0,0.,12.0,0.,12.0,0.,12.0,0.,12.0
1979-03-10 10:19:39.020 ,6,0,0.,12.0,0.,12.0,0.,12.0,0.,12.0
1979-03-10 10:19:51.020 ,6,0,0.,12.0,0.,12.0,0.,12.0,0.,12.0
1979-03-10 10:20:03.020 ,7,0,0.,12.0,0.,12.0,0.,12.0,0.,12.0
1979-03-10 10:20:15.020 ,7,0,0.,12.0,0.,12.0,0.,12.0,0.,12.0
1979-03-10 10:20:27.020 ,7,0,0.,12.0,0.,12.0,0.,12.0,0.,12.0
1979-03-10 10:20:39.020 ,7,0,0.,12.0,0.,12.0,0.,12.0,0.,12.0
1979-03-10 10:20:51.020 ,6,0,0.,12.0,0.,12.0,0.,12.0,0.,12.0
1979-03-10 10:21:03.020 ,6,0,0.,12.0,0.,12.0,0.,12.0,0.,12.0
1979-03-10 10:21:15.020 ,5,0,0.,12.0,0.,12.0,0.,12.0,0.,12.0
1979-03-10 10:21:27.020 ,5,0,0.,12.0,0.,12.0,0.,12.0,0.,12.0
1979-03-10 10:21:39.020 ,4,0,0.,12.0,0.,12.0,0.,12.0,0.,12.0
1979-03-10 10:21:51.020 ,4,0,0.,12.0,0.,12.0,0.,12.0,0.,12.0
1979-03-10 10:22:03.020 ,3,0,0.,12.0,0.,12.0,0.,12.0,0.,12.0
1979-03-10 10:22:15.020 ,3,0,0.,12.0,0.,12.0,0.,12.0,0.,12.0
1979-03-10 10:22:27.020 ,2,0,0.,12.0,0.,12.0,0.,12.0,0.,12.0
1979-03-10 10:22:39.020 ,2,0,0.,12.0,0.,12.0,0.,12.0,0.,12.0
1979-03-10 10:22:51.020 ,1,0,0.,12.0,0.,12.0,0.,12.0,0.,12.0
1979-03-10 10:23:03.020 ,1,0,0.,12.0,0.,12.0,0.,12.0,0.,12.0
1979-03-10 10:23:15.020 ,0,0,0.,12.0,0.,12.0,0.,12.0,0.,12.0
1979-03-10 10:23:27.020 ,0,0,0.,12.0,0.,12.0,0.,12.0,0.,12.0
1979-03-10 10:23:39.020 ,0,0,0.,12.0,0.,12.0,0.,12.0,0.,12.0
1979-03-10 10:23:51.020 ,0,0,0.,12.0,0.,12.0,0.,12.0,0.,12.0
1979-03-10 10:24:03.020 ,1,0,0.,12.0,0.,12.0,0.,12.0,0.,12.0
1979-03-10 10:24:15.020 ,1,0,0.,12.0,0.,12.0,0.,12.0,0.,12.0
1979-03-10 10:24:27.020 ,2,0,0.,12.0,0.,12.0,0.,12.0,0.,12.0
1979-03-10 10:24:39.020 ,2,0,0.,12.0,0.,12.0,0.,12.0,0.,12.0
1979-03-10 10:24:51.020 ,3,0,0.,12.0,0.,12.0,0.,12.0,0.,12.0
1979-03-10 10:25:03.020 ,3,0,0.,12.0,0.,12.0,0.,12.0,0.,12.0
1979-03-10 10:25:15.020 ,4,0,1.,12.0,0.,12.0,0.,12.0,0.,12.0
1979-03-10 10:25:27.020 ,4,0,0.,12.0,0.,12.0,0.,12.0,0.,12.0
1979-03-10 10:25:39.020 ,5,0,0.,12.0,0.,12.0,0.,12.0,0.,12.0
1979-03-10 10:25:51.020 ,5,0,0.,12.0,0.,12.0,0.,12.0,0.,12.0
1979-03-10 10:26:03.020 ,6,0,0.,12.0,0.,12.0,0.,12.0,0.,12.0
1979-03-10 10:26:15.020 ,6,0,0.,12.0,0.,12.0,0.,12.0,0.,12.0
1979-03-10 10:26:27.020 ,7,0,0.,12.0,0.,12.0,0.,12.0,0.,12.0
1979-03-10 10:26:39.020 ,7,0,0.,12.0,0.,12.0,0.,12.0,0.,12.0
1979-03-10 10:26:51.020 ,7,0,0.,12.0,0.,12.0,0.,12.0,0.,12.0
1979-03-10 10:27:03.020 ,7,0,0.,12.0,0.,12.0,0.,12.0,0.,12.0
1979-03-10 10:27:15.020 ,6,0,0.,12.0,0.,12.0,0.,12.0,0.,12.0
1979-03-10 10:27:27.020 ,6,0,0.,12.0,0.,12.0,0.,12.0,0.,12.0
1979-03-10 10:27:39.020 ,5,0,0.,12.0,0.,12.0,0.,12.0,0.,12.0
1979-03-10 10:27:51.020 ,5,0,0.,12.0,0.,12.0,0.,12.0,0.,12.0
1979-03-10 10:28:03.020 ,4,0,0.,12.0,0.,12.0,0.,12.0,0.,12.0
1979-03-10 10:28:15.020 ,4,0,0.,12.0,0.,12.0,0.,12.0,0.,12.0
1979-03-10 10:28:27.020 ,3,0,0.,12.0,0.,12.0,0.,12.0,0.,12.0
1979-03-10 10:28:39.020 ,3,0,0.,12.0,0.,12.0,0.,12.0,0.,12.0
1979-03-10 10:28:51.020 ,2,0,0.,12.0,0.,12.0,0.,12.0,0.,12.0
1979-03-10 10:29:03.020 ,2,0,0.,12.0,0.,12.0,0.,12.0,0.,12.0
1979-03-10 10:29:15.020 ,1,0,0.,12.0,0.,12.0,0.,12.0,0.,12.0
1979-03-10 10:29:27.020 ,1,0,0.,12.0,0.,12.0,0.,12.0,0.,12.0
1979-03-10 10:29:39.020 ,0,0,0.,12.0,0.,12.0,0.,12.0,0.,12.0
1979-03-10 10:29:51.020 ,0,0,0.,12.0,0.,12.0,0.,12.0,0.,12.0
1979-03-10 10:30:03.020 ,0,0,0.,12.0,0.,12.0,0.,12.0,0.,12.0
1979-03-10 10:30:15.020 ,0,0,0.,12.0,0.,12.0,0.,12.0,0.,12.0
1979-03-10 10:30:51.020 ,2,0,0.,12.0,0.,12.0,0.,12.0,0.,12.0
1979-03-10 10:31:03.020 ,2,0,0.,12.0,0.,12.0,0.,12.0,0.,12.0
1979-03-10 10:31:15.020 ,3,0,0.,12.0,0.,12.0,0.,12.0,0.,12.0
1979-03-10 10:31:27.020 ,3,0,0.,12.0,0.,12.0,0.,12.0,0.,12.0
1979-03-10 10:31:39.020 ,4,0,0.,12.0,0.,12.0,0.,12.0,0.,12.0
1979-03-10 10:31:51.020 ,4,0,0.,12.0,0.,12.0,0.,12.0,0.,12.0
1979-03-10 10:32:03.020 ,5,0,0.,12.0,0.,12.0,0.,12.0,0.,12.0
1979-03-10 10:32:15.020 ,5,0,0.,12.0,0.,12.0,0.,12.0,0.,12.0